This is the latest recevied weather packets stored in our database for station/object KC3ULW-13. If no packets are shown the sender has not sent any weather packets the latest 10 day(s).
| Time | Temp. | Humidity | Pressure | Rain* | Wind** | Luminosity | Snow |
|---|---|---|---|---|---|---|---|
| 1777655359 | 11.67° C | 61% | 1013.8 hPa | 0 mm | - | 140 W/m² | - |
| 1777655056 | 11.67° C | 61% | 1014 hPa | 0 mm | - | 98 W/m² | - |
| 1777654754 | 11.67° C | 61% | 1014.1 hPa | 0 mm | - | 85 W/m² | - |
| 1777654451 | 11.67° C | 61% | 1014 hPa | 0 mm | - | 93 W/m² | - |
| 1777654149 | 11.67° C | 60% | 1014.2 hPa | 0 mm | - | 115 W/m² | - |
| 1777653846 | 12.22° C | 60% | 1014 hPa | 0 mm | - | 160 W/m² | - |
| 1777653542 | 12.22° C | 59% | 1014.2 hPa | 0 mm | - | 102 W/m² | - |
| 1777653239 | 12.22° C | 59% | 1014.2 hPa | 0 mm | - | 80 W/m² | - |
| 1777652935 | 12.78° C | 59% | 1014.1 hPa | 0 mm | - | 124 W/m² | - |
| 1777652632 | 12.78° C | 58% | 1014 hPa | 0 mm | - | 145 W/m² | - |
| 1777652329 | 12.22° C | 58% | 1014.2 hPa | 0 mm | - | 138 W/m² | - |
| 1777652026 | 12.22° C | 57% | 1014.2 hPa | 0 mm | - | 130 W/m² | - |
| 1777651723 | 12.78° C | 57% | 1014.4 hPa | 0 mm | - | 99 W/m² | - |
| 1777651419 | 12.78° C | 56% | 1014.5 hPa | 0 mm | - | 98 W/m² | - |
| 1777651117 | 13.33° C | 56% | 1014.4 hPa | 0 mm | - | 145 W/m² | - |
| 1777650813 | 13.33° C | 55% | 1014.5 hPa | 0 mm | - | 162 W/m² | - |
| 1777650510 | 13.33° C | 56% | 1014.5 hPa | 0 mm | - | 393 W/m² | - |
| 1777650207 | 12.78° C | 58% | 1014.5 hPa | 0 mm | - | 336 W/m² | - |
| 1777649905 | 12.78° C | 56% | 1014.6 hPa | 0 mm | - | 275 W/m² | - |
| 1777649602 | 12.78° C | 57% | 1014.9 hPa | 0 mm | - | 214 W/m² | - |
| 1777649298 | 12.78° C | 56% | 1014.7 hPa | 0 mm | - | 197 W/m² | - |
| 1777648995 | 12.22° C | 58% | 1014.9 hPa | 0 mm | - | 172 W/m² | - |
| 1777648693 | 12.78° C | 58% | 1014.5 hPa | 0 mm | - | 144 W/m² | - |
| 1777648389 | 12.78° C | 56% | 1014.8 hPa | 0 mm | - | 174 W/m² | - |
| 1777648085 | 13.33° C | 55% | 1014.8 hPa | 0 mm | - | 207 W/m² | - |
* Rain latest hour (hover to see other rain measurements)
** Current wind speed in m/s (hover to see current wind gust speed)